Regional Weather Roundup
Issued by NWS

Home | Current Version | Previous Version | Graphics & Text | Print | Product List | Glossary On
Versions: 1 2 3 4 5 6 7 8 9 10 11 12 13 14 15 16 17 18 19 20 21 22 23 24 25 26 27 28 29 30 31 32 33 34 35 36 37 38 39 40 41 42 43 44 45 46 47 48 49 50
000
ASUS43 KFSD 200002
RWRSD

WEATHER ROUNDUP FOR SOUTH DAKOTA
NATIONAL WEATHER SERVICE SIOUX FALLS SD
600 PM CST SUN FEB 19 2017

NOTE: "FAIR" INDICATES FEW OR NO CLOUDS BELOW 12,000 FEET WITH NO
SIGNIFICANT WEATHER AND/OR OBSTRUCTIONS TO VISIBILITY.


SDZ001>005-009-010-012>017-200100-
NORTHWEST AND NORTH CENTRAL SOUTH DAKOTA

CITY           SKY/WX    TMP DP  RH WIND       PRES   REMARKS
BUFFALO          N/A     61  35  37 SW8       29.39R
FAITH            N/A     54  37  52 S10       29.46R
MOBRIDGE       CLOUDY    45  36  70 SE13      29.46S
$$

SDZ012>016-024>037-041>051-057-063-072>074-200100-
SOUTHWEST AND SOUTH CENTRAL SOUTH DAKOTA

CITY           SKY/WX    TMP DP  RH WIND       PRES   REMARKS
RAPID CTY ARPT CLOUDY    59  34  39 S13       29.50R
PIERRE         CLOUDY    60  39  45 S13       29.51R
CUSTER         CLOUDY    52  28  39 W10G21    29.60R
ELLSWORTH AFB  CLOUDY    60  34  37 S13       29.49R
PHILIP         CLOUDY    62  35  36 S9        29.50R
PINE RIDGE     CLOUDY    52  36  54 S12       29.57R
SPEARFISH      FAIR      61  30  31 SW6G15    29.51R
WINNER         FAIR      66  42  41 S13       29.56F
$$

SDZ004>011-016>023-039-040-200100-
NORTHEAST SOUTH DAKOTA

CITY           SKY/WX    TMP DP  RH WIND       PRES   REMARKS
ABERDEEN       CLOUDY    53  47  79 S10       29.56S
WATERTOWN      CLOUDY    53  47  79 S20       29.63R
BROOKINGS      PTCLDY    56  49  77 S20G28    29.67R
SISSETON         N/A     54  50  86 SE10      29.62R
$$

SDZ017-020-022-023-036>040-048>070-200100-
SOUTHEAST SOUTH DAKOTA

CITY           SKY/WX    TMP DP  RH WIND       PRES   REMARKS
SIOUX FALLS    CLOUDY    59  51  75 SE13      29.70R
HURON          PTCLDY    59  51  75 S13       29.59R
CHAMBERLAIN    CLOUDY    62  46  57 SE5       29.56S
MITCHELL       PTCLDY    62  51  67 S20G28    29.61R
YANKTON        CLOUDY    61  50  67 SE10      29.67R
$$

ABBREVIATIONS USED IN REMARKS
   TC - TEMPERATURE IN CELSIUS
  WCI - WIND CHILL INDEX
   HX - HEAT INDEX
  VSB - VISIBILITY




USA.gov is the U.S. government's official web portal to all federal, state and local government web resources and services.